Regional Weather Roundup
Issued by NWS Jackson, KY

Home | Current Version | Previous Version | Text Only | Print | Product List | Glossary Off
Versions: 1 2 3 4 5 6 7 8 9 10 11 12 13 14 15 16 17 18 19 20 21 22 23 24 25 26 27 28

000
ASUS43 KJKL 231210
RWRJKL

EAST KENTUCKY HOURLY WEATHER ROUNDUP
NATIONAL WEATHER SERVICE JACKSON KY
800 AM EDT SAT JUL 23 2016

NOTE: "FAIR" INDICATES FEW OR NO CLOUDS BELOW 12,000 FEET WITH
NO SIGNIFICANT WEATHER AND/OR OBSTRUCTIONS TO VISIBILITY.

* THESE REPORTS ARE NOT UNDER NWS QUALITY CONTROL AND MAY NOT
  REPORT WEATHER SUCH AS PRECIPITATION AND FOG.

KYZ079-080-083-085-087-088-110-112-115-119-120-231300
...EASTERN KENTUCKY...

CITY           SKY/WX    TMP DP  RH WIND       PRES   REMARKS
JACKSON        CLOUDY    73  69  87 CALM      30.07R
6HR MIN TEMP:  69; 6HR MAX TEMP:  73; 6HR PCP: TRACE;

LONDON         MOSUNNY   75  69  81 CALM      30.06S
6HR MIN TEMP:  71; 6HR MAX TEMP:  75;

SOMERSET*      MOSUNNY   72  72 100 CALM      30.06S FOG
MONTICELLO*    MOSUNNY  N/A N/A N/A MISG      30.06S HAZE
WILLIAMSBURG*  CLOUDY    72  72 100 CALM      30.06S VSB 1/2
MIDDLESBORO*   SUNNY     73  72  95 CALM      30.07R
6HR MIN TEMP:  71; 6HR MAX TEMP:  76;

HARLAN APT*    CLOUDY    72  70  94 CALM      30.08S
BIG SANDY APT* CLOUDY    71  71 100 CALM      30.07R
MOREHEAD APT*  FOG       70  70 100 CALM      30.07S VSB<1/4
ASHLAND*       CLOUDY    70  70 100 CALM      30.02S VSB 1/4
$$

KYZ035-036-041-042-044-050-067-078-099-231300
...CENTRAL KENTUCKY...

CITY           SKY/WX    TMP DP  RH WIND       PRES   REMARKS
MT STERLING*   SUNNY     72  72 100 CALM      30.07R
FLEMING/MASON* SUNNY     70  70  98 S3        30.06S FOG
DANVILLE*      SUNNY     70  70 100 CALM      30.07R
RICHMOND*      SUNNY     72  70  94 CALM      30.06R
LEXINGTON      MOSUNNY   73  70  90 S5        30.05S
6HR MIN TEMP:  70; 6HR MAX TEMP:  74;

FRANKFORT      SUNNY     74  70  87 S3        30.03R
6HR MIN TEMP:  70; 6HR MAX TEMP:  74;

LOUISVILLE     PTSUNNY   76  71  85 CALM      30.02R
6HR MIN TEMP:  74; 6HR MAX TEMP:  78;

LEBANON*         N/A     73  72  94 CALM      30.04S
GLASGOW*       MOSUNNY   73  73 100 CALM      30.03R
BOWLING GREEN  PTSUNNY   75  73  93 CALM      30.02S FOG
6HR MIN TEMP:  73; 6HR MAX TEMP:  76;

$$

KYZ091>093-OHZ055-061-077-WVZ005-015-034-035-042-231300
...SOUTHERN OHIO/WEST VIRGINIA...

CITY           SKY/WX    TMP DP  RH WIND       PRES   REMARKS
COVINGTON      CLOUDY    75  73  93 CALM      30.03S FOG
COLUMBUS       MOSUNNY   72  69  90 SE3       30.01F
DAYTON         MOSUNNY   76  72  87 CALM      30.03F
WILMINGTON     SUNNY     73  70  90 CALM      30.03F FOG
HUNTINGTON     PTSUNNY   71  70  96 CALM      30.04S
CHARLESTON     FOG       69  68  96 CALM      30.06R VSB 1/2
PINEVILLE*     FOG       69  66  90 MISG      30.14S VSB 1/4
BECKLEY          N/A     71  68  90 W3        30.14R
BLUEFIELD        N/A     71  65  81 CALM      30.16R
LOGAN CO APT*  FOG       72  72 100 CALM      30.07S VSB 1/2
$$

VAZ002-007-008-TNZ017-027-036-066-071-231300
...SOUTHWEST VIRGINIA/EAST TENNESSEE...

CITY           SKY/WX    TMP DP  RH WIND       PRES   REMARKS
WISE*            N/A     75  63  64 CALM      30.15S
JONESVILLE*      N/A     75  72  88 CALM      30.09S
ABINGDON*        N/A     73  67  82 SE3       30.11S
BRISTOL        PTSUNNY   73  68  84 CALM      30.08S
MORRISTOWN*    SUNNY     77  70  78 CALM      30.05S
SEVIERVILLE*   SUNNY     75  70  83 CALM      30.04S
KNOXVILLE      PTSUNNY   78  71  79 CALM      30.03R
OAK RIDGE      CLOUDY    79  73  82 CALM      30.05R
CROSSVILLE     CLOUDY    74  73  97 CALM      30.09S FOG
NASHVILLE      CLOUDY    78  73  84 CALM      30.02R
$$

...KEY TO REMARKS...
VSB - VISIBILITY IN MILES
WCI - WIND CHILL INDEX
HX  - HEAT INDEX

$$




USA.gov is the U.S. government's official web portal to all federal, state and local government web resources and services.